Regional Weather Roundup
Issued by NWS

Home | Current Version | Previous Version | Graphics & Text | Print | Product List | Glossary On
Versions: 1 2 3 4 5 6 7 8 9 10 11 12 13 14 15 16 17 18 19 20 21 22 23 24 25 26 27 28 29 30 31 32 33 34 35 36 37 38 39 40 41 42 43 44 45 46 47 48 49 50
278
ASUS44 KMEG 201710
RWRTN
TENNESSEE HOURLY STATE WEATHER ROUNDUP
NATIONAL WEATHER SERVICE MEMPHIS TN
1100 AM CST MON FEB 20 2017

TNZ002-004-019-021-049-052-054-088>092-201800-
WEST TENNESSEE

CITY           SKY/WX    TMP DP  RH WIND       PRES   REMARKS
MEMPHIS INTL   PTSUNNY   75  55  49 S8        30.10S
NWS MEMPHIS      N/A     74 N/A N/A MISG        N/A
JACKSON        CLOUDY    71  51  49 S8        30.13S
UNION CITY     SUNNY     64  52  63 CALM      30.12S
PARIS          SUNNY     63  50  63 SE8       30.14F
HUNTINGDON     SUNNY     66  52  59 SE6       30.13F
$$

TNZ008-025-027-028-033-062-065-066-201800-
NORTH MIDDLE TENNESSEE

CITY           SKY/WX    TMP DP  RH WIND       PRES   REMARKS
NASHVILLE      CLOUDY    67  47  48 S7        30.17S
PORTLAND       SUNNY     68  48  49 SE10      30.16F
CLARKSVILLE    PTSUNNY   65  50  58 S6        30.16R
SMYRNA         CLOUDY    67  51  56 SE8       30.17F
COOKEVILLE     SUNNY     68  46  45 S10       30.17S
GALLATIN       SUNNY     64  50  59 SE8       30.19F
CROSSVILLE     MOSUNNY   61  43  51 SE8       30.22F
$$

TNZ061-075-076-078-094-096-097-201800-
SOUTH MIDDLE TENNESSEE

CITY           SKY/WX    TMP DP  RH WIND       PRES   REMARKS
FAYETTEVILLE   SUNNY     66  50  55 SE5       30.17S
TULLAHOMA      SUNNY     66  46  48 SE8       30.19R
MCMINNVILLE    SUNNY     68  48  49 VRB5      30.18S
COLUMBIA       SUNNY     64  61  88 CALM      30.15S
SHELBYVILLE    SUNNY     70  52  52 VRB7      30.18R
$$

TNZ017-018-042-046-047-201800-
NORTHEAST TENNESSEE

CITY           SKY/WX    TMP DP  RH WIND       PRES   REMARKS
TRI CITIES     MOSUNNY   60  45  57 CALM      30.22F
ELIZABETHTON   DRIZZLE   61  45  55 VRB3      30.21F
$$

TNZ012-013-036-069-073-074-201800-
CENTRAL EAST TENNESSEE

CITY           SKY/WX    TMP DP  RH WIND       PRES   REMARKS
KNOXVILLE      CLOUDY    62  45  53 CALM      30.21F
OAK RIDGE      MOSUNNY   62  46  55 CALM      30.22F
GATLINBURG     SUNNY     61  45  55 CALM      30.20F
MORRISTOWN     SUNNY     63  46  55 NE6       30.20F
JACKSBORO      SUNNY     61  48  63 CALM      30.25F
$$

TNZ083-085-099-201800-
SOUTHEAST TENNESSEE

CITY           SKY/WX    TMP DP  RH WIND       PRES   REMARKS
CHATTANOOGA    CLOUDY    61  46  57 N3        30.21F
$$

SKY/WX REPORTED AS FAIR MEANS FEW OR NO CLOUDS BELOW
12 THOUSAND FEET.





USA.gov is the U.S. government's official web portal to all federal, state and local government web resources and services.